Newton, KS

4:16 AM CDT on August 24, 2017 (GMT -0500)
Newton City County

Weather History for KEWK - April, 2013

Change the Weather History Date:

Saturday, April 20, 2013

  Actual Average Record
Temperature  
Mean Temperature 46 °F -  
Max Temperature 60 °F 64 °F 84 °F (2005)
Min Temperature 33 °F 44 °F 33 °F (2013)
Degree Days  
Heating Degree Days 18    
Moisture  
Dew Point 32 °F    
Average Humidity 57    
Maximum Humidity 75    
Minimum Humidity 41    
Precipitation  
Precipitation 0.00 in - - ()
Sea Level Pressure  
Sea Level Pressure 30.09 in    
Wind  
Wind Speed 10 mph (ESE)    
Max Wind Speed 20 mph    
Max Gust Speed 24 mph    
Visibility 10 miles    
Events      
Averages and records for this station are not official NWS values.
T = Trace of Precipitation, MM = Missing Value Source: NWS Daily Summary

Daily Weather History Graph

Daily Weather History Graph

Search for Another Location

Airport or City:

Trip Planner

Search our weather history database for the weather conditions in past years. The results will help you decide how hot, cold, wet, or windy it might be!

Date:

Astronomy

Apr. 20, 2013 Rise Set
Actual Time 6:46 AM CDT 8:10 PM CDT
Civil Twilight 6:18 AM CDT 8:37 PM CDT
Nautical Twilight 5:45 AM CDT 9:10 PM CDT
Astronomical Twilight 5:11 AM CDT 9:45 PM CDT
Moon 3:00 PM CDT (4/20) 3:31 AM CDT (4/20)
Length of Visible Light 14h 18m
Length of Day
13h 23m
Waxing Gibbous, 71% of the Moon is Illuminated
Apr 20
Waxing Gibbous
Apr 25
Full
May 2
Last Quarter
May 9
New
May 17
First Quarter

Hourly Weather History & Observations

Time (CDT) Temp. Windchill Dew Point Humidity Pressure Visibility Wind Dir Wind Speed Gust Speed Precip Events Conditions
12:15 AM 37.4 °F 32.8 °F 28.4 °F 70% 30.10 in 10.0 mi ENE 5.8 mph - N/A   Clear
12:35 AM 39.2 °F 35.0 °F 28.4 °F 65% 30.10 in 10.0 mi ENE 5.8 mph - N/A   Clear
12:55 AM 35.6 °F 31.7 °F 26.6 °F 70% 30.11 in 10.0 mi East 4.6 mph - N/A   Clear
1:35 AM 35.6 °F 30.7 °F 26.6 °F 70% 30.11 in 10.0 mi ENE 5.8 mph - N/A   Clear
1:55 AM 35.6 °F 29.9 °F 26.6 °F 70% 30.11 in 10.0 mi ENE 6.9 mph - N/A   Clear
2:15 AM 35.6 °F 30.7 °F 26.6 °F 70% 30.11 in 10.0 mi ENE 5.8 mph - N/A   Partly Cloudy
2:35 AM 33.8 °F 27.7 °F 26.6 °F 75% 30.10 in 10.0 mi East 6.9 mph - N/A   Clear
2:55 AM 33.8 °F 28.6 °F 26.6 °F 75% 30.11 in 10.0 mi East 5.8 mph - N/A   Clear
3:15 AM 33.8 °F 27.7 °F 26.6 °F 75% 30.10 in 10.0 mi East 6.9 mph - N/A   Clear
3:35 AM 33.8 °F 28.6 °F 26.6 °F 75% 30.10 in 10.0 mi East 5.8 mph - N/A   Clear
3:55 AM 33.8 °F 27.7 °F 24.8 °F 70% 30.11 in 10.0 mi East 6.9 mph - N/A   Clear
4:15 AM 33.8 °F 27.7 °F 26.6 °F 75% 30.11 in 10.0 mi East 6.9 mph - N/A   Clear
4:35 AM 33.8 °F 28.6 °F 24.8 °F 70% 30.11 in 10.0 mi East 5.8 mph - N/A   Clear
4:55 AM 33.8 °F 28.6 °F 24.8 °F 70% 30.11 in 10.0 mi East 5.8 mph - N/A   Clear
5:15 AM 33.8 °F 27.7 °F 26.6 °F 75% 30.12 in 10.0 mi East 6.9 mph - N/A   Clear
5:35 AM 33.8 °F 26.4 °F 26.6 °F 75% 30.11 in 10.0 mi East 9.2 mph - N/A   Clear
5:55 AM 35.6 °F 27.1 °F 24.8 °F 65% 30.11 in 10.0 mi East 12.7 mph - N/A   Clear
6:15 AM 33.8 °F 25.8 °F 24.8 °F 70% 30.11 in 10.0 mi East 10.4 mph - N/A   Clear
6:35 AM 33.8 °F 26.4 °F 24.8 °F 70% 30.11 in 10.0 mi ESE 9.2 mph - N/A   Clear
6:55 AM 33.8 °F 27.0 °F 24.8 °F 70% 30.11 in 10.0 mi ESE 8.1 mph - N/A   Clear
7:15 AM 35.6 °F 28.0 °F 24.8 °F 65% 30.12 in 10.0 mi ESE 10.4 mph - N/A   Clear
7:35 AM 35.6 °F 27.5 °F 26.6 °F 70% 30.12 in 10.0 mi ESE 11.5 mph - N/A   Clear
7:55 AM 37.4 °F 29.3 °F 26.6 °F 65% 30.12 in 10.0 mi ESE 12.7 mph 18.4 mph N/A   Clear
8:15 AM 37.4 °F 29.8 °F 26.6 °F 65% 30.12 in 10.0 mi ESE 11.5 mph 21.9 mph N/A   Clear
8:35 AM 39.2 °F 30.5 °F 26.6 °F 61% 30.12 in 10.0 mi ESE 16.1 mph 19.6 mph N/A   Clear
8:55 AM 39.2 °F 31.2 °F 26.6 °F 61% 30.13 in 10.0 mi ESE 13.8 mph 19.6 mph N/A   Clear
9:15 AM 42.8 °F 35.8 °F 28.4 °F 57% 30.13 in 10.0 mi ESE 13.8 mph 21.9 mph N/A   Clear
9:35 AM 44.6 °F 38.1 °F 28.4 °F 53% 30.13 in 10.0 mi ESE 13.8 mph 21.9 mph N/A   Clear
9:55 AM 44.6 °F 36.6 °F 28.4 °F 53% 30.13 in 10.0 mi ESE 19.6 mph 24.2 mph N/A   Clear
10:15 AM 46.4 °F 39.0 °F 30.2 °F 53% 30.13 in 10.0 mi ESE 19.6 mph 23.0 mph N/A   Clear
10:35 AM 46.4 °F 39.2 °F 30.2 °F 53% 30.13 in 10.0 mi ESE 18.4 mph 24.2 mph N/A   Clear
10:55 AM 48.2 °F - 32.0 °F 54% 30.13 in 10.0 mi ESE 18.4 mph 23.0 mph N/A   Clear
11:15 AM 50.0 °F - 33.8 °F 54% 30.13 in 10.0 mi ESE 16.1 mph 23.0 mph N/A   Clear
11:35 AM 51.8 °F - 33.8 °F 50% 30.13 in 10.0 mi SE 18.4 mph 23.0 mph N/A   Clear
11:55 AM 51.8 °F - 32.0 °F 47% 30.12 in 10.0 mi SE 17.3 mph - N/A   Clear
12:15 PM 53.6 °F - 33.8 °F 47% 30.11 in 10.0 mi SE 16.1 mph - N/A   Clear
12:35 PM 55.4 °F - 33.8 °F 44% 30.10 in 10.0 mi SE 19.6 mph - N/A   Clear
12:55 PM 55.4 °F - 35.6 °F 47% 30.09 in 10.0 mi SSE 15.0 mph 24.2 mph N/A   Clear
1:15 PM 57.2 °F - 35.6 °F 44% 30.08 in 10.0 mi SE 18.4 mph - N/A   Clear
1:35 PM 57.2 °F - 33.8 °F 41% 30.08 in 10.0 mi SSE 16.1 mph 20.7 mph N/A   Clear
1:55 PM 59.0 °F - 35.6 °F 42% 30.07 in 10.0 mi SE 13.8 mph 23.0 mph N/A   Clear
2:15 PM 57.2 °F - 35.6 °F 44% 30.07 in 10.0 mi SE 17.3 mph 21.9 mph N/A   Clear
2:35 PM 57.2 °F - 35.6 °F 44% 30.07 in 10.0 mi SE 18.4 mph - N/A   Clear
2:55 PM 57.2 °F - 35.6 °F 44% 30.06 in 10.0 mi SE 17.3 mph 23.0 mph N/A   Clear
3:15 PM 57.2 °F - 37.4 °F 48% 30.05 in 10.0 mi SE 15.0 mph 21.9 mph N/A   Clear
3:35 PM 57.2 °F - 35.6 °F 44% 30.05 in 10.0 mi SE 16.1 mph - N/A   Clear
3:55 PM 57.2 °F - 35.6 °F 44% 30.04 in 10.0 mi SE 17.3 mph - N/A   Clear
4:15 PM 59.0 °F - 37.4 °F 45% 30.04 in 10.0 mi SE 18.4 mph - N/A   Clear
4:35 PM 57.2 °F - 37.4 °F 48% 30.03 in 10.0 mi SE 15.0 mph - N/A   Clear
4:55 PM 59.0 °F - 37.4 °F 45% 30.02 in 10.0 mi SE 13.8 mph 20.7 mph N/A   Clear
5:15 PM 60.8 °F - 37.4 °F 42% 30.02 in 10.0 mi SE 16.1 mph 20.7 mph N/A   Clear
5:35 PM 59.0 °F - 37.4 °F 45% 30.01 in 10.0 mi SE 13.8 mph 21.9 mph N/A   Clear
5:55 PM 59.0 °F - 37.4 °F 45% 30.02 in 10.0 mi SE 16.1 mph - N/A   Clear
6:15 PM 57.2 °F - 37.4 °F 48% 30.02 in 10.0 mi ESE 15.0 mph 19.6 mph N/A   Clear
6:35 PM 57.2 °F - 37.4 °F 48% 30.02 in 10.0 mi ESE 13.8 mph - N/A   Clear
6:55 PM 57.2 °F - 35.6 °F 44% 30.03 in 10.0 mi ESE 15.0 mph 19.6 mph N/A   Clear
7:15 PM 55.4 °F - 37.4 °F 51% 30.03 in 10.0 mi ESE 13.8 mph - N/A   Partly Cloudy
7:35 PM 55.4 °F - 37.4 °F 51% 30.03 in 10.0 mi ESE 13.8 mph 18.4 mph N/A   Clear
7:55 PM 55.4 °F - 37.4 °F 51% 30.03 in 10.0 mi ESE 15.0 mph - N/A   Clear
8:15 PM 55.4 °F - 35.6 °F 47% 30.04 in 10.0 mi ESE 12.7 mph - N/A   Clear
8:35 PM 53.6 °F - 37.4 °F 54% 30.05 in 10.0 mi ESE 11.5 mph - N/A   Clear
8:55 PM 53.6 °F - 37.4 °F 54% 30.06 in 10.0 mi ESE 11.5 mph - N/A   Clear
9:15 PM 53.6 °F - 37.4 °F 54% 30.07 in 10.0 mi ESE 11.5 mph - N/A   Partly Cloudy
9:35 PM 53.6 °F - 37.4 °F 54% 30.08 in 10.0 mi ESE 12.7 mph - N/A   Scattered Clouds
9:55 PM 53.6 °F - 37.4 °F 54% 30.08 in 10.0 mi ESE 11.5 mph - N/A   Mostly Cloudy
10:15 PM 53.6 °F - 37.4 °F 54% 30.09 in 10.0 mi ESE 11.5 mph - N/A   Mostly Cloudy
10:35 PM 53.6 °F - 37.4 °F 54% 30.09 in 10.0 mi ESE 11.5 mph - N/A   Partly Cloudy
10:55 PM 51.8 °F - 37.4 °F 58% 30.09 in 10.0 mi ESE 10.4 mph - N/A   Clear
11:15 PM 51.8 °F - 37.4 °F 58% 30.09 in 10.0 mi SE 11.5 mph - N/A   Clear
11:35 PM 51.8 °F - 37.4 °F 58% 30.09 in 10.0 mi SE 11.5 mph - N/A   Clear
11:55 PM 51.8 °F - 37.4 °F 58% 30.09 in 10.0 mi SE 10.4 mph - N/A   Partly Cloudy